Regional Weather Roundup
Issued by NWS Little Rock, AR

Home | Current Version | Previous Version | Graphics & Text | Print | Product List | Glossary On
Versions: 1 2 3 4 5 6 7 8 9 10 11 12 13 14 15 16 17 18 19 20 21 22 23 24 25 26 27 28 29 30 31 32 33 34 35 36 37 38 39 40 41 42 43 44 45 46 47 48 49 50
000
ASUS44 KLZK 300105
RWRLZK

WEATHER ROUNDUP FOR ARKANSAS
NATIONAL WEATHER SERVICE LITTLE ROCK AR
700 PM CST THU JAN 29 2015

NOTE: "FAIR" INDICATES FEW OR NO CLOUDS BELOW 12,000 FEET WITH NO
SIGNIFICANT WEATHER AND/OR OBSTRUCTIONS TO VISIBILITY.

ARZ001-003-010-029-300200-
NORTHWEST ARKANSAS

CITY           SKY/WX    TMP DP  RH WIND       PRES   REMARKS
FAYETTEVILLE   CLEAR     38  28  67 N3        30.44R
FORT SMITH     PTCLDY    44  29  55 CALM      30.45R
HARRISON       PTCLDY    38  28  67 NW9       30.41R
BENTONVILLE    CLEAR     39  27  60 N7        30.44R
ROGERS         CLEAR     39  27  62 N7        30.44R
SILOAM SPGS    CLEAR     36  23  60 N8        30.46R
HIGHFILL       CLEAR     37  27  67 N8        30.43R
SPRINGDALE     CLEAR     39  28  65 N12       30.45R
$$

ARZ004-005-016-300200-
NORTH CENTRAL ARKANSAS

CITY           SKY/WX    TMP DP  RH WIND       PRES   REMARKS
BATESVILLE     CLOUDY    45  30  57 NW10G17   30.39R
FLIPPIN        MOCLDY    43  27  52 NW9       30.41R
MTN HOME       MOCLDY    40  28  62 N8        30.40R
$$

ARZ040-041-300200-
WEST CENTRAL ARKANSAS

CITY           SKY/WX    TMP DP  RH WIND       PRES   REMARKS
MENA           CLOUDY    46  32  57 N8G17     30.40R
MOUNT IDA      CLOUDY    47  31  53 N12       30.36R
$$

ARZ009-017-025-026-028-300200-
NORTHEAST ARKANSAS

CITY           SKY/WX    TMP DP  RH WIND       PRES   REMARKS
CORNING        CLOUDY    43  32  65 NW10      30.38R
JONESBORO      CLOUDY    44  31  60 NW15G22   30.37R
NEWPORT        CLOUDY    44  32  63 N14       30.40R
WALNUT RIDGE   CLOUDY    43  28  56 NW14      30.38R
BLYTHEVILLE    CLOUDY    44  34  67 N10       30.36R
$$

ARZ022-023-033-042-044-300200-
CENTRAL ARKANSAS

CITY           SKY/WX    TMP DP  RH WIND       PRES   REMARKS
LITTLE ROCK    CLOUDY    47  31  53 N15G21    30.39R
N LITTLE ROCK  MOCLDY    44  35  68 N14G24    30.39R
JACKSONVILLE   CLOUDY    46  32  58 NW10      30.39R
SEARCY         CLOUDY    45  31  58 NW12G17   30.40R
HOT SPRINGS    CLOUDY    49  34  56 N7        30.38R
RUSSELLVILLE   PTCLDY    44  30  57 NW6       30.42R
CLINTON        FAIR      43  28  56 NW5       30.42R
$$

ARZ036-300200-
EAST ARKANSAS

CITY           SKY/WX    TMP DP  RH WIND       PRES   REMARKS
WEST MEMPHIS   CLOUDY    45  34  65 N14G22    30.35R
$$

ARZ050-053-066-070-073-300200-
SOUTHWEST ARKANSAS

CITY           SKY/WX    TMP DP  RH WIND       PRES   REMARKS
ARKADELPHIA    FAIR      51  37  58 NW10      30.38R
CAMDEN         MOCLDY    55  36  47 MISG      30.31R
TEXARKANA      CLOUDY    52  36  54 N13       30.35R
EL DORADO      MOCLDY    58  38  47 N12       30.30R
DE QUEEN       CLOUDY    49  33  54 N6        30.38R
$$

ARZ056-057-069-300200-
SOUTHEAST ARKANSAS

CITY           SKY/WX    TMP DP  RH WIND       PRES   REMARKS
PINE BLUFF     CLOUDY    48  35  60 N22G33    30.36R
STUTTGART      CLOUDY    46  34  61 N17       30.36R
MONTICELLO     CLOUDY    55  40  56 N10G25    30.30R

$$





USA.gov is the U.S. government's official web portal to all federal, state and local government web resources and services.